FW0266 Weather Reports


Display with metric or nautical units.
time (UTC)temp
F
wind
direction
speed
MPH
gust
MPH
rain 1hr
in
rain 24hr
in
rain mn
in
humidity
%
barometer
mb
20260905114520 73 114 2.0 6.0 0.00 0.00 0.00 32 1009.2
20260905113018 73 100 1.0 3.0 0.00 0.00 0.00 32 1009.1
20260905111517 73 117 0.0 3.0 0.00 0.00 0.00 33 1009.1
20260905110019 74 102 0.0 3.0 0.00 0.00 0.00 32 1009.0
20260905104515 75 91 0.0 6.0 0.00 0.00 0.00 32 1009.0
20260905103013 76 123 3.0 8.0 0.00 0.00 0.00 30 1008.9
20260905101515 77 129 3.0 8.0 0.00 0.00 0.00 28 1008.8
20260905100012 77 112 5.0 9.0 0.00 0.00 0.00 27 1008.8
20260905094513 77 125 7.0 12.0 0.00 0.00 0.00 27 1008.8
20260905093012 75 141 0.0 5.0 0.00 0.00 0.00 26 1008.8
20260905091511 76 150 1.0 9.0 0.00 0.00 0.00 25 1008.7
20260905090011 75 115 1.0 5.0 0.00 0.00 0.00 27 1008.7
20260905084510 75 91 2.0 5.0 0.00 0.00 0.00 26 1008.8
20260905083011 76 106 1.0 8.0 0.00 0.00 0.00 24 1008.9
20260905081509 76 98 2.0 6.0 0.00 0.00 0.00 23 1009.2
20260905080011 76 91 4.0 10.0 0.00 0.00 0.00 23 1009.0
20260905074505 76 104 3.0 8.0 0.00 0.00 0.00 22 1008.9
20260905073005 76 105 5.0 9.0 0.00 0.00 0.00 22 1009.0
20260905071503 76 101 6.0 12.0 0.00 0.00 0.00 21 1009.1
20260905070004 76 98 5.0 11.0 0.00 0.00 0.00 22 1009.1
20260905063200 76 97 4.0 9.0 0.00 0.00 0.00 21 1008.6
20260905061657 76 100 2.0 7.0 0.00 0.00 0.00 21 1008.6
20260905060157 75 108 2.0 8.0 0.00 0.00 0.00 21 1008.4
20260905054655 76 109 3.0 8.0 0.00 0.00 0.00 22 1008.5
20260905053200 76 122 4.0 10.0 0.00 0.00 0.00 23 1008.5
20260905051517 76 119 3.0 8.0 0.00 0.00 0.00 26 1008.4
20260905050048 77 149 4.0 11.0 0.00 0.00 0.00 27 1008.2
20260905044546 78 134 6.0 11.0 0.00 0.00 0.00 27 1008.1
20260905043142 78 143 5.0 11.0 0.00 0.00 0.00 30 1008.1
20260905041539 78 134 4.0 13.0 0.00 0.00 0.00 30 1007.8
20260905040037 78 124 6.0 10.0 0.00 0.00 0.00 31 1007.6
20260905034538 78 146 4.0 7.0 0.00 0.00 0.00 32 1007.7
20260905033036 79 108 5.0 8.0 0.00 0.00 0.00 30 1007.5
20260905031539 80 128 5.0 9.0 0.00 0.00 0.00 30 1007.3
20260905030035 80 110 4.0 7.0 0.00 0.00 0.00 29 1007.1
20260905024534 81 129 3.0 7.0 0.00 0.00 0.00 28 1006.9
20260905023035 82 122 3.0 9.0 0.00 0.00 0.00 27 1006.9
20260905021534 83 166 5.0 9.0 0.00 0.00 0.00 26 1006.9
20260905020044 84 153 6.0 15.0 0.00 0.00 0.00 25 1006.8
20260905014532 86 142 8.0 18.0 0.00 0.00 0.00 22 1006.8
20260905013039 87 165 10.0 20.0 0.00 0.00 0.00 24 1006.7
20260905011548 88 165 14.0 21.0 0.00 0.00 0.00 22 1006.8
20260905010029 89 165 16.0 22.0 0.00 0.00 0.00 21 1006.7
20260905004532 89 202 13.0 22.0 0.00 0.00 0.00 21 1006.5
20260905003032 90 170 14.0 24.0 0.00 0.00 0.00 23 1006.5
20260905001527 90 178 15.0 26.0 0.00 0.00 0.00 23 1006.3
20260905000028 90 181 14.0 22.0 0.00 0.00 0.00 24 1006.3
20260904234525 90 160 15.0 25.0 0.00 0.00 0.00 26 1006.4
20260904233024 90 194 16.0 28.0 0.00 0.00 0.00 27 1006.3
20260904231523 91 168 13.0 24.0 0.00 0.00 0.00 25 1006.4
20260904230029 91 181 16.0 26.0 0.00 0.00 0.00 25 1006.6
20260904224523 91 148 18.0 26.0 0.00 0.00 0.00 24 1006.4
20260904223022 91 155 13.0 27.0 0.00 0.00 0.00 24 1006.6
20260904221521 92 165 16.0 27.0 0.00 0.00 0.00 22 1006.5
20260904220021 92 138 15.0 23.0 0.00 0.00 0.00 23 1006.7
20260904214520 92 163 12.0 22.0 0.00 0.00 0.00 24 1006.8
20260904213018 91 147 15.0 25.0 0.00 0.00 0.00 25 1006.8
20260904211516 91 141 13.0 25.0 0.00 0.00 0.00 27 1007.0
20260904210016 91 139 16.0 27.0 0.00 0.00 0.00 29 1006.9
20260904204514 91 205 17.0 28.0 0.00 0.00 0.00 29 1007.1
20260904203018 90 152 14.0 24.0 0.00 0.00 0.00 31 1007.1
20260904201512 90 155 14.0 25.0 0.00 0.00 0.00 27 1007.3
20260904200015 90 204 12.0 23.0 0.00 0.00 0.00 29 1007.5
20260904194512 89 163 11.0 26.0 0.00 0.00 0.00 30 1007.5
20260904193012 88 124 9.0 22.0 0.00 0.00 0.00 36 1007.4
20260904191509 89 108 9.0 18.0 0.00 0.00 0.00 35 1007.6
20260904190008 87 126 4.0 23.0 0.00 0.00 0.00 38 1007.8
20260904184508 88 113 12.0 22.0 0.00 0.00 0.00 38 1008.0
20260904183006 86 103 11.0 19.0 0.00 0.00 0.00 41 1008.0
20260904181516 87 113 11.0 20.0 0.00 0.00 0.00 40 1008.1
20260904180002 86 115 12.0 24.0 0.00 0.00 0.00 38 1008.1
20260904174603 84 113 12.0 22.0 0.00 0.00 0.00 43 1008.1
20260904173059 84 101 9.0 22.0 0.00 0.00 0.00 44 1008.2
20260904171618 84 133 10.0 22.0 0.00 0.00 0.00 45 1008.4
20260904170055 82 114 9.0 17.0 0.00 0.00 0.00 47 1008.2
20260904164552 82 115 9.0 20.0 0.00 0.00 0.00 48 1008.1
20260904163051 82 146 8.0 17.0 0.00 0.00 0.00 47 1008.2
20260904161548 81 118 7.0 17.0 0.00 0.00 0.00 50 1008.1
20260904160047 80 113 9.0 17.0 0.00 0.00 0.00 49 1008.1
20260904154549 80 110 9.0 17.0 0.00 0.00 0.00 51 1008.1
20260904153041 79 127 13.0 23.0 0.00 0.00 0.00 51 1008.1
20260904151539 79 120 8.0 19.0 0.00 0.00 0.00 51 1008.0
20260904150041 78 88 13.0 19.0 0.00 0.00 0.00 51 1008.0
20260904144536 78 110 9.0 16.0 0.00 0.00 0.00 48 1008.0
20260904143037 77 111 8.0 16.0 0.00 0.00 0.00 45 1008.1
20260904141529 0 0.0 0.0 0.00 0.00 0.00 1007.8
20260904140038 0 0.0 0.0 0.00 0.00 0.00 1007.8
20260904134526 0 0.0 0.0 0.00 0.00 0.00 1007.3
20260904133017 0 0.0 0.0 0.00 0.00 0.00 1007.1
20260904131511 0 0.0 0.0 0.00 0.00 0.00 1007.2
20260904130008 76 135 8.0 14.0 0.00 0.00 0.00 23 1007.0
20260904124510 76 104 5.0 11.0 0.00 0.00 0.00 27 1006.7
20260904123006 76 103 4.0 10.0 0.00 0.00 0.00 32 1006.7
20260904121505 76 105 5.0 10.0 0.00 0.00 0.00 36 1006.7
20260904120004 76 108 3.0 8.0 0.00 0.00 0.00 34 1006.6